Weather in Peresyp'

Russia / Kursk Oblast     51°05′29″N   36°28′00″E
temp.,
°C
wind,
m/s
gust,
m/s
humid.,
%
clouds,
%
prec.,
mm/h
press.,
hPa
HPBL,
m
29 june, wed
wed2900:00+18ene49925 0.0 1018167
03:00+17ene3895100 0.3 1019163
06:00+16ne38869 0.0 1019170
09:00+21ene467079 0.0 1019545
12:00+24e445646 0.0 10191239
15:00+24ene3353100 0.0 10191601
18:00+23ene3363100 0.0 10181075
21:00+18ese3377100 0.0 101822
30 june, thu
thu3000:00+16ese348292 0.0 101856
03:00+15se3378100 0.0 101852
06:00+15sw1182100 0.3 101832
09:00+15ssw1289100 1.9 1019220
12:00+19ssw117365 0.1 1019665
15:00+22wsw116230 0.1 10181154
18:00+20nnw22717 0.8 1017454
21:00+17ne128284 1.2 101711
1 july, fri
fri100:00+14ne22863 0.0 101819
03:00+13n33875 0.0 101835
06:00+14n36890 0.0 1018130
09:00+19n46680 0.0 1018550
12:00+22nne57510 0.0 10181616
15:00+23nne68473 0.0 10182280
18:00+21nne696366 0.0 1018680
21:00+16ne36790 0.0 102088
2 july, sat
sat200:00+12ene33790 0.0 102133
03:00+11ne11730 0.0 102110
06:00+12nnw22750 0.0 102246
09:00+18nnw34585 0.0 1022514
12:00+22n46485 0.0 10211456
15:00+24nnw46485 0.0 10201812
18:00+23nw46613 0.0 10191373
21:00+18nw34805 0.0 101947
3 july, sun
sun300:00+17wnw357832 0.0 101873
03:00+16nw498760 0.3 1018163
06:00+17nw310925 0.0 1017226
09:00+23nw57725 0.0 1016522
12:00+27nnw575917 0.0 10161202
15:00+28nw575128 0.0 10162611
18:00+25nw477099 0.5 1015178
21:00+20nw41086100 1.1 1016196